Location: Petruro
(41.0333°N, 14.7833°E)
Time: 09:52:26
(UTC+00:00)

DELTA 2 R/B (1) - Pass Details

Date: 31 October 2021
Orbit: 790 x 802 km, 39.6° (Epoch: 28 November)

Event Time Altitude Azimuth Distance (km) Brightness Sun altitude
Rises 19:44:13 0° 271° (W) 3,300 7.5 -42.8°
Reaches altitude 10° 19:46:42 10° 270° (W) 2,368 6.6 -43.2°
Enters shadow 19:47:15 13° 270° (W) 2,168 6.3 -43.3°
